Orbital Elements at Epoch 2459200.5 (2020-Dec-17.0) TDB
Reference: JPL 19 (heliocentric ecliptic J2000)
Element | Value | Uncertainty (1-sigma) | Units |
e | .2132848744576235 | 5.0399e-08 | |
a | 2.335816946489837 | 8.7026e-09 | au |
q | 1.837622522301763 | 1.2133e-07 | au |
i | 3.581058458483571 | 3.8885e-06 | deg |
node | 63.53175460984966 | 8.9412e-05 | deg |
peri | 317.3195406471843 | 9.0437e-05 | deg |
M | 92.88818178481652 | 1.4805e-05 | deg |
tp | 2458864.054599498200 (2020-Jan-15.55459950) | 5.2422e-05 | TDB |
period | 1303.937076314333 3.57 | 7.2872e-06 1.995e-08 | d yr |
n | .2760869420306419 | 1.5429e-09 | deg/d |
Q | 2.834011370677911 | 1.0559e-08 | au |
|
| | Orbit Determination Parameters
Additional Information
|